Location: ????????
(55.6333°N, 37.7000°E)
Time: 06:54:47
(UTC+00:00)

Cosmos 158 Rocket - Pass Details

Date: 19 May 2025
Orbit: 695 x 787 km, 74.0° (Epoch: 23 June)

Event Time Altitude Azimuth Distance (km) Brightness Sun altitude
Rises 18:53:24 0° 204° (SSW) 3,241 6.9 -7.8°
Reaches altitude 10° 18:55:46 10° 204° (SSW) 2,327 6.2 -8.0°
Maximum altitude 19:01:05 87° 118° (ESE) 795 4.1 -8.4°
Drops below altitude 10° 19:06:29 10° 29° (NNE) 2,361 6.9 -8.9°
Sets 19:08:54 0° 29° (NNE) 3,292 7.7 -9.0°
